User: anonymous   Login
Location: Catacaguana
(10.4120°N, 66.7591°W)
Time: 23:30:08
(UTC+00:00)
Language:

FENGYUN 1C DEB - Orbit

View from above orbital plane
View from above orbital plane
View from above satellite
View from above satellite

Ground track
Ground track

The orbit data is extracted from the following two-line orbital elements,

1 30170U 99025UB  23033.54309024  .00000546  00000-0  40473-3 0  9990
2 30170  98.8150  47.9107 0071027 293.6932 191.2020 13.98140353818136
Epoch (UTC): 02 February 2023 13:02:02
Eccentricity: 0.0071027
inclination: 98.8150°
perigee height: 848 km
apogee height: 952 km
right ascension of ascending node: 47.9107°
argument of perigee: 293.6932°
revolutions per day: 13.98140353
mean anomaly at epoch: 191.2020°
orbit number at epoch: 81813

The dashed part of the orbit path shows where the satellite is in the earth's shadow,  

DLR